Beaufort, SC

9:47 AM EST on February 12, 2016 (GMT -0500)
Beaufort

Weather History for KARW - January, 2013

Change the Weather History Date:

Thursday, January 24, 2013

  Actual Average (KNBC) Record (KNBC)
Temperature  
Mean Temperature 54 °F -  
Max Temperature 68 °F 60 °F 81 °F (1949)
Min Temperature 41 °F 40 °F 19 °F (2003)
Degree Days  
Heating Degree Days 10    
Growing Degree Days 4 (Base 50)    
Moisture  
Dew Point 36 °F    
Average Humidity 51    
Maximum Humidity 67    
Minimum Humidity 23    
Precipitation  
Precipitation 0.00 in - - ()
Sea Level Pressure  
Sea Level Pressure 30.23 in    
Wind  
Wind Speed 13 mph (WNW)    
Max Wind Speed 23 mph    
Max Gust Speed 31 mph    
Visibility 8 miles    
Events      
Averages and records for this station are not official NWS values.
T = Trace of Precipitation, MM = Missing Value Source: NWS Daily Summary

Daily Weather History Graph

Daily Weather History Graph

Search for Another Location

Airport or City:

Trip Planner

Search our weather history database for the weather conditions in past years. The results will help you decide how hot, cold, wet, or windy it might be!

Date:

Astronomy

Jan. 24, 2013 Rise Set
Actual Time 7:21 AM EST 5:48 PM EST
Civil Twilight 6:55 AM EST 6:14 PM EST
Nautical Twilight 6:25 AM EST 6:44 PM EST
Astronomical Twilight 5:56 AM EST 7:13 PM EST
Moon 3:51 PM EST (1/24) 5:15 AM EST (1/24)
Length of Visible Light 11h 19m
Length of Day
10h 27m
Waxing Gibbous, 94% of the Moon is Illuminated
Jan 24
Waxing Gibbous
Jan 26
Full
Feb 3
Last Quarter
Feb 10
New
Feb 17
First Quarter

Hourly Weather History & Observations

Time (EST) Temp. Windchill Dew Point Humidity Pressure Visibility Wind Dir Wind Speed Gust Speed Precip Events Conditions
12:15 AM 46.4 °F 43.5 °F 35.6 °F 66% 30.21 in 10.0 mi SW 5.8 mph - N/A   Clear
12:35 AM 48.2 °F - 35.6 °F 62% 30.20 in 10.0 mi SW 6.9 mph - N/A   Clear
12:55 AM 48.2 °F - 35.6 °F 62% 30.20 in 7.0 mi SW 6.9 mph - N/A   Clear
1:15 AM 48.2 °F - 35.6 °F 62% 30.20 in 7.0 mi SW 9.2 mph - N/A   Clear
1:35 AM 50.0 °F - 35.6 °F 58% 30.20 in 10.0 mi WSW 12.7 mph - N/A   Clear
1:55 AM 50.0 °F - 35.6 °F 58% 30.20 in 7.0 mi WSW 11.5 mph 18.4 mph N/A   Scattered Clouds
2:15 AM 50.0 °F - 35.6 °F 58% 30.19 in 7.0 mi SW 11.5 mph 16.1 mph N/A   Scattered Clouds
2:55 AM 50.0 °F - 37.4 °F 62% 30.18 in 7.0 mi SW 10.4 mph - N/A   Clear
3:15 AM 50.0 °F - 37.4 °F 62% 30.17 in 7.0 mi WSW 11.5 mph - N/A   Clear
3:35 AM 50.0 °F - 37.4 °F 62% 30.16 in 7.0 mi WSW 11.5 mph 18.4 mph N/A   Clear
3:55 AM 50.0 °F - 37.4 °F 62% 30.16 in 7.0 mi WSW 12.7 mph - N/A   Clear
4:15 AM 50.0 °F - 37.4 °F 62% 30.14 in 7.0 mi SW 13.8 mph 19.6 mph N/A   Clear
4:35 AM 50.0 °F - 37.4 °F 62% 30.14 in 10.0 mi WSW 13.8 mph 18.4 mph N/A   Clear
4:55 AM 51.8 °F - 37.4 °F 58% 30.14 in 10.0 mi SW 15.0 mph 23.0 mph N/A   Scattered Clouds
5:15 AM 51.8 °F - 37.4 °F 58% 30.14 in 10.0 mi WSW 13.8 mph 21.9 mph N/A   Clear
5:35 AM 51.8 °F - 39.2 °F 62% 30.14 in 10.0 mi WSW 13.8 mph 21.9 mph N/A   Scattered Clouds
5:55 AM 51.8 °F - 39.2 °F 62% 30.15 in 10.0 mi WSW 12.7 mph 20.7 mph N/A   Clear
6:15 AM 51.8 °F - 41.0 °F 67% 30.15 in 10.0 mi WSW 12.7 mph 19.6 mph N/A   Clear
6:35 AM 51.8 °F - 41.0 °F 67% 30.15 in 10.0 mi WSW 11.5 mph 19.6 mph N/A   Clear
6:55 AM 51.8 °F - 41.0 °F 67% 30.15 in 10.0 mi WSW 12.7 mph 18.4 mph N/A   Clear
7:15 AM 51.8 °F - 41.0 °F 67% 30.16 in 10.0 mi WSW 12.7 mph 18.4 mph N/A   Clear
7:35 AM 51.8 °F - 41.0 °F 67% 30.16 in 7.0 mi WSW 11.5 mph - N/A   Clear
7:55 AM 51.8 °F - 41.0 °F 67% 30.17 in 7.0 mi WSW 11.5 mph 18.4 mph N/A   Clear
8:15 AM 53.6 °F - 42.8 °F 67% 30.17 in 7.0 mi West 12.7 mph 18.4 mph N/A   Clear
8:55 AM 55.4 °F - 42.8 °F 63% 30.18 in 7.0 mi WSW 15.0 mph - N/A   Clear
9:15 AM 55.4 °F - 42.8 °F 63% 30.18 in 7.0 mi WSW 12.7 mph 21.9 mph N/A   Clear
9:35 AM 59.0 °F - 42.8 °F 55% 30.19 in 7.0 mi West 17.3 mph 24.2 mph N/A   Clear
9:55 AM 59.0 °F - 42.8 °F 55% 30.19 in 5.0 mi West 12.7 mph 24.2 mph N/A   Haze
10:15 AM 60.8 °F - 42.8 °F 52% 30.19 in 7.0 mi West 15.0 mph 24.2 mph N/A   Clear
10:35 AM 60.8 °F - 42.8 °F 52% 30.19 in 10.0 mi West 19.6 mph 25.3 mph N/A   Clear
10:55 AM 60.8 °F - 44.6 °F 55% 30.19 in 5.0 mi WNW 10.4 mph 17.3 mph N/A   Haze
11:15 AM 62.6 °F - 44.6 °F 52% 30.19 in 7.0 mi WNW 11.5 mph 17.3 mph N/A   Clear
11:35 AM 62.6 °F - 42.8 °F 48% 30.19 in 7.0 mi WNW 16.1 mph 27.6 mph N/A   Clear
11:55 AM 64.4 °F - 42.8 °F 45% 30.18 in 10.0 mi WNW 15.0 mph 20.7 mph N/A   Clear
12:15 PM 66.2 °F - 41.0 °F 40% 30.18 in 10.0 mi WNW 16.1 mph 26.5 mph N/A   Clear
12:35 PM 68.0 °F - 39.2 °F 35% 30.16 in 10.0 mi West 21.9 mph 28.8 mph N/A   Clear
12:55 PM 68.0 °F - 39.2 °F 35% 30.15 in 10.0 mi WNW 18.4 mph 26.5 mph N/A   Clear
1:15 PM 68.0 °F - 37.4 °F 33% 30.15 in 10.0 mi WNW 17.3 mph 28.8 mph N/A   Clear
1:35 PM 68.0 °F - 35.6 °F 30% 30.15 in 7.0 mi WNW 21.9 mph 26.5 mph N/A   Clear
1:55 PM 68.0 °F - 35.6 °F 30% 30.14 in 7.0 mi WNW 15.0 mph 25.3 mph N/A   Clear
2:35 PM 68.0 °F - 32.0 °F 26% 30.14 in 7.0 mi WNW 17.3 mph 24.2 mph N/A   Clear
2:55 PM 68.0 °F - 30.2 °F 24% 30.14 in 7.0 mi WNW 20.7 mph 28.8 mph N/A   Clear
3:15 PM 68.0 °F - 28.4 °F 23% 30.16 in 7.0 mi NW 16.1 mph 26.5 mph N/A   Clear
3:35 PM 68.0 °F - 30.2 °F 24% 30.17 in 7.0 mi NW 15.0 mph 24.2 mph N/A   Clear
3:55 PM 68.0 °F - 30.2 °F 24% 30.17 in 7.0 mi NW 9.2 mph 18.4 mph N/A   Clear
4:15 PM 68.0 °F - 30.2 °F 24% 30.19 in 7.0 mi NW 12.7 mph 17.3 mph N/A   Clear
4:35 PM 64.4 °F - 30.2 °F 28% 30.19 in 7.0 mi NNW 6.9 mph - N/A   Clear
4:55 PM 64.4 °F - 32.0 °F 30% 30.20 in 7.0 mi NW 3.5 mph - N/A   Clear
5:15 PM 64.4 °F - 32.0 °F 30% 30.21 in 7.0 mi NNW 3.5 mph - N/A   Clear
5:35 PM 55.4 °F - 37.4 °F 51% 30.25 in 7.0 mi East 18.4 mph 31.1 mph N/A   Clear
5:55 PM 51.8 °F - 37.4 °F 58% 30.28 in 5.0 mi East 18.4 mph 24.2 mph N/A   Haze
6:15 PM 50.0 °F - 35.6 °F 58% 30.28 in 7.0 mi East 19.6 mph 27.6 mph N/A   Clear
6:35 PM 50.0 °F - 33.8 °F 54% 30.30 in 7.0 mi East 18.4 mph 28.8 mph N/A   Clear
6:55 PM 50.0 °F - 33.8 °F 54% 30.31 in 7.0 mi East 17.3 mph 28.8 mph N/A   Clear
7:15 PM 50.0 °F - 32.0 °F 50% 30.32 in 7.0 mi East 21.9 mph 27.6 mph N/A   Clear
7:35 PM 48.2 °F - 32.0 °F 54% 30.34 in 10.0 mi ENE 19.6 mph 27.6 mph N/A   Clear
7:55 PM 48.2 °F - 28.4 °F 46% 30.35 in 10.0 mi ENE 18.4 mph 25.3 mph N/A   Clear
8:15 PM 46.4 °F 39.0 °F 28.4 °F 50% 30.35 in 10.0 mi ENE 19.6 mph 26.5 mph N/A   Clear
8:35 PM 46.4 °F 39.2 °F 28.4 °F 50% 30.37 in 7.0 mi ENE 18.4 mph 26.5 mph N/A   Clear
8:55 PM 46.4 °F 39.2 °F 28.4 °F 50% 30.38 in 7.0 mi ENE 18.4 mph 25.3 mph N/A   Clear
9:15 PM 44.6 °F 35.9 °F 28.4 °F 53% 30.40 in 7.0 mi NE 23.0 mph 28.8 mph N/A   Clear
9:35 PM 44.6 °F 36.6 °F 26.6 °F 49% 30.40 in 7.0 mi NE 19.6 mph 26.5 mph N/A   Clear
9:55 PM 44.6 °F 36.1 °F 28.4 °F 53% 30.41 in 7.0 mi NE 21.9 mph 27.6 mph N/A   Clear
10:15 PM 42.8 °F 34.5 °F 28.4 °F 57% 30.42 in 7.0 mi NE 18.4 mph 27.6 mph N/A   Clear
10:35 PM 42.8 °F 34.0 °F 26.6 °F 53% 30.42 in 7.0 mi NE 20.7 mph 27.6 mph N/A   Clear
10:55 PM 42.8 °F 34.8 °F 26.6 °F 53% 30.43 in 10.0 mi ENE 17.3 mph 24.2 mph N/A   Clear
11:15 PM 41.0 °F 31.9 °F 26.6 °F 57% 30.42 in 7.0 mi NE 19.6 mph 26.5 mph N/A   Clear
11:35 PM 41.0 °F 32.8 °F 26.6 °F 57% 30.44 in 7.0 mi ENE 16.1 mph 24.2 mph N/A   Clear
11:55 PM 41.0 °F 31.9 °F 26.6 °F 57% 30.43 in 10.0 mi NE 19.6 mph 25.3 mph N/A   Scattered Clouds